Flag for Bahamas Weather past 2 weeks in Nassau, Bahamas

Now
82 °F

Passing clouds.


Feels Like: 89 °F
Forecast: 81 / 87 °F
Wind: No wind

Location: Nassau Airport

Current Time: Sep 14, 2014 at 10:39:50 PM

Latest Report: Sep 14, 2014 at 10:00 PM


Visibility: N/A

Pressure: 30.14 "Hg

Humidity: 79%

Dew point: 75 °F

Location of NassauLocation

Historic Weather in Nassau — Graph

°F

Nassau temperature yesterday

Maximum temperature yesterday: 88 °F (at 2:00 PM)
Minimum temperature yesterday: 72 °F (at 1:00 AM)
Average temperature yesterday: 80 °F

Past Weeks' High & Low Weather Summary

 TemperatureHumidityPressure
High90 °F (Aug 31, 11:00 AM)100% (Sep 11, 5:00 AM)30.14 "Hg (Sep 11, 5:00 AM)
Low72 °F (Sep 13, 1:00 AM)55% (Sep 2, 7:00 PM)29.96 "Hg (Sep 3, 4:00 AM)
Average82 °F78%30.05 "Hg
* Reported Aug 30 9:00 PM — Sep 14 9:00 PM, Nassau, Weather by CustomWeather, © 2014

Note: Actual official high and low records may vary slightly from our data, if they occured in-between our weather recording intervals... More about our weather records

Advertising

Nassau weather history for previous 24 hours

 ConditionsComfort  
Time TempWeatherWind HumidityBarometerVisibility
9:00 PM
Sep 14
82 °FPassing clouds.3 mph79%30.13 "HgN/A
8:00 PM84 °FPartly sunny.3 mph84%30.11 "HgN/A
7:00 PM84 °FPartly sunny.6 mph70%30.10 "HgN/A
6:00 PM86 °FBroken clouds.7 mph66%30.10 "HgN/A
5:00 PM86 °FBroken clouds.7 mph66%30.11 "HgN/A
4:00 PM88 °FBroken clouds.9 mph59%30.10 "HgN/A
3:00 PM88 °FBroken clouds.7 mph59%30.11 "HgN/A
2:00 PM88 °FBroken clouds.7 mph70%30.11 "HgN/A
1:00 PM86 °FBroken clouds.3 mph70%30.13 "HgN/A
12:00 PM86 °FBroken clouds.7 mph66%30.14 "HgN/A
11:00 AM86 °FBroken clouds.6 mph75%30.13 "HgN/A
10:00 AM82 °FBroken clouds.5 mph79%30.13 "HgN/A
9:00 AM81 °FPartly sunny.No wind84%30.11 "HgN/A
8:00 AM79 °FBroken clouds.No wind94%30.11 "HgN/A
7:00 AM79 °FPassing clouds.No wind89%30.09 "HgN/A
6:00 AM79 °FPartly cloudy.No wind84%30.09 "HgN/A
5:00 AM79 °FPartly cloudy.No wind94%30.08 "HgN/A
2:00 AM79 °FPartly cloudy.No wind94%30.10 "HgN/A
1:00 AM79 °FPartly cloudy.No wind84%30.09 "HgN/A
12:00 AM79 °FPartly cloudy.1 mph84%30.09 "HgN/A
11:00 PM
Sep 13
81 °FSprinkles. Partly cloudy.3 mph79%30.09 "HgN/A
10:00 PM81 °FThundershowers. Partly cloudy.N/A84%30.07 "HgN/A
Weather by CustomWeather, © 2014

See weather overviewHow to use our weather pages